Regional Weather Roundup
Issued by NWS

Home | Current Version | Previous Version | Graphics & Text | Print | Product List | Glossary On
Versions: 1 2 3 4 5 6 7 8 9 10 11 12 13 14 15 16 17 18 19 20 21 22 23 24 25 26 27
000
ASUS45 KBOU 230507
RWRCO

WEATHER ROUNDUP FOR COLORADO
NATIONAL WEATHER SERVICE DENVER/BOULDER CO
1100 PM MDT MON AUG 22 2016

NOTE: "FAIR" INDICATES FEW OR NO CLOUDS BELOW 12000 FEET WITH NO
SIGNIFICANT WEATHER AND/OR OBSTRUCTIONS TO VISIBILITY.

COZ001>005-013-030-031-230600-
...NORTHWEST COLORADO...

CITY           SKY/WX    TMP DP  RH WIND       PRES   REMARKS
CRAIG          FAIR      54  42  64 NW3       30.13R
HAYDEN         FAIR      57  37  47 CALM      30.15S
MEEKER         FAIR      59  41  51 CALM      30.17R
MOUNT WERNER   NOT AVBL
STEAMBOAT SPGS FAIR      58  39  50 CALM      30.17R
WALDEN         FAIR      46  37  71 E8        30.25S
$$

COZ006>008-011-230600-
...WEST CENTRAL VALLEYS...

CITY           SKY/WX    TMP DP  RH WIND       PRES   REMARKS
GRAND JUNCTION LGT RAIN  64  54  69 E14       30.10F
MONTROSE       FAIR      61  44  53 SE7       30.17S
EAGLE          FAIR      61  45  55 E3        30.20S
RIFLE          FAIR      62  49  62 SE10      30.14S
DELTA          NOT AVBL
NUCLA          MOCLDY    59  55  88 CALM      30.24R
$$

COZ017>023-064>068-230600-
...SOUTHWEST COLORADO...

CITY           SKY/WX    TMP DP  RH WIND       PRES   REMARKS
DURANGO        FAIR      55  51  86 E3        30.23S
CORTEZ         CLOUDY    60  51  72 NE7       30.17S
PAGOSA SPRINGS CLOUDY    52  51  96 CALM      30.31S
TELLURIDE      CLOUDY    50  46  87 CALM      30.39S
WOLF CREEK PAS MOCLDY    39  37  93 SW14      30.55S
$$

COZ009-010-012-014-032>034-037-058>063-230600-
...CENTRAL COLORADO...

CITY           SKY/WX    TMP DP  RH WIND       PRES   REMARKS
ASPEN          FAIR      58  43  57 VRB3      30.25F
BUENA VISTA    FAIR      55  37  49 NW3       30.26S
COPPER MTN     FAIR      46  32  57 W3        30.52S
BERTHOUD PASS  FAIR      37  27  65 N14G23    30.53F
COTTONWOOD PAS FAIR      52  36  54 W12G17    30.38F
GUNNISON       FAIR      52  46  82 S5        30.32F
KREMMLING      FAIR      52  37  58 N6        30.24S
LEADVILLE      FAIR      43  38  82 NE3       30.37F
MONARCH PASS   FOG       37  37 100 SW9       30.61S VSB<1/4
SALIDA         FAIR      60  43  54 SW12G20   30.31F
SUNLIGHT       MOCLDY    46  36  66 CALM      30.47F
WILKERSON PASS NOT AVBL
$$

COZ069>075-230600-
...SAN LUIS VALLEY/SANGRE DE CRISTO MOUNTAINS...

CITY           SKY/WX    TMP DP  RH WIND       PRES   REMARKS
ALAMOSA        CLOUDY    53  44  71 SE8       30.26R
LA VETA PASS   FAIR      45  41  87 S8        30.36F
SAGUACHE       FAIR      54  43  66 N13       30.28F
$$

COZ035-036-038>040-230600-
...NORTHERN COLORADO FRONT RANGE...

CITY           SKY/WX    TMP DP  RH WIND       PRES   REMARKS
DENVER INTL AP FAIR      70  41  34 SW9       29.98F
DMNS CITY PARK   N/A     72  40  30 SW6       29.98S
AURORA         PTCLDY    65  42  43 SW8       30.01S
FRONT RANGE AP NOT AVBL
ERIE MUNI ARPT FAIR      64  38  39 S7        29.96F
BOULDER MUN AP FAIR      72  36  26 S6        29.97F
CENTENNIAL     FAIR      65  39  38 W7        30.03S
BROOMFIELD     NOT AVBL
FORT COLLINS   FAIR      66  39  37 N6        29.95S
LONGMONT       FAIR      64  42  45 CALM      29.96F
$$

COZ041-046-047-076>085-087-088-230600-
...PIKES PEAK/PALMER DIVIDE AND SOUTHERN FOOTHILLS...

CITY           SKY/WX    TMP DP  RH WIND       PRES   REMARKS
COLO. SPRINGS  FAIR      70  39  32 NW8       30.07F
A. F. ACADEMY  FAIR      67  38  34 W18G24    30.08F
SCHRIEVER AFB  NOT AVBL
ELLICOTT       NOT AVBL
FALCON         FAIR      64  36  35 NW14      30.11F
FORT CARSON    FAIR      69  40  34 W9        30.02F
LIMON          FAIR      59  42  53 CALM      29.98S
MONUMENT HILL  FAIR      55  37  50 W9        30.13F
TRINIDAD       FAIR      66  43  43 W14       30.06F
$$

COZ042>045-048>051-090-091-230600-
...NORTHEAST COLORADO...

CITY           SKY/WX    TMP DP  RH WIND       PRES   REMARKS
GREELEY ARPT   FAIR      61  48  63 N5        29.93F
AKRON          FAIR      67  53  61 SE10      29.92S
BURLINGTON     FAIR      67  57  70 E9        29.91F
WRAY           FAIR      72  57  60 SE18G30   29.87F
STERLING       FAIR      68  55  64 S7        29.86F
HOLYOKE        FAIR      72  59  64 S10       29.88F
FORT MORGAN    FAIR      65  40  40 W8        29.92R
$$

COZ086-089-092>099-230600-
...SOUTHEAST COLORADO...

CITY           SKY/WX    TMP DP  RH WIND       PRES   REMARKS
PUEBLO         FAIR      74  43  32 W9        29.95S
LA JUNTA       FAIR      74  47  38 W13       29.91S
LAMAR          FAIR      74  54  49 S15       29.87R
SPRINGFIELD      N/A     70  57  63 S13       29.99S
$$




USA.gov is the U.S. government's official web portal to all federal, state and local government web resources and services.